Location: Staunton
(38.1490°N, 79.0720°W)
Time: 10:56:29
(UTC-04:00)

ISS - Pass Details

Date: 19 October 2021
Orbit: 417 x 423 km, 51.6° (Epoch: 23 October)

Event Time Altitude Azimuth Distance (km) Brightness Sun altitude
Rises 06:19:32 0° 182° (S) 2,350 0.0 -14.4°
Reaches altitude 10° 06:22:53 10° 146° (SE) 1,491 -0.5 -13.8°
Maximum altitude 06:23:57 11° 127° (SE) 1,421 -0.2 -13.5°
Drops below altitude 10° 06:25:02 10° 109° (ESE) 1,494 0.3 -13.3°
Sets 06:28:23 0° 73° (ENE) 2,361 1.5 -12.7°
